FW1310 Weather Reports


time (UTC)temp
C
wind
direction
speed
KPH
gust
KPH
rain 1hr
cm
rain 24hr
cm
rain mn
cm
humidity
%
barometer
mb
20260508175004 22 263 1.6 3.2 0.00 0.00 0.00 73 997.8
20260508174504 22 188 0.0 0.0 0.00 0.00 0.00 74 997.9
20260508174004 21 225 0.0 4.8 0.00 0.00 0.00 75 997.8
20260508173504 21 283 3.2 4.8 0.00 0.00 0.00 75 998.1
20260508173004 22 282 1.6 3.2 0.00 0.00 0.00 75 998.0
20260508172504 22 224 1.6 3.2 0.00 0.00 0.00 74 998.0
20260508172004 22 206 3.2 4.8 0.00 0.00 0.00 73 998.1
20260508171504 21 181 0.0 4.8 0.00 0.00 0.00 75 998.0
20260508171004 21 118 0.0 4.8 0.00 0.00 0.00 75 998.0
20260508170504 21 256 1.6 4.8 0.00 0.00 0.00 75 998.2
20260508165504 21 230 0.0 0.0 0.00 0.00 0.00 75 998.4
20260508165004 20 115 0.0 0.0 0.00 0.00 0.00 75 998.6
20260508164504 20 157 0.0 0.0 0.00 0.00 0.00 76 998.7
20260508164003 20 205 0.0 0.0 0.00 0.00 0.00 76 998.8
20260508162504 20 142 0.0 1.6 0.00 0.00 0.00 74 999.0
20260508162004 20 265 1.6 3.2 0.00 0.00 0.00 75 998.8
20260508161504 20 231 0.0 1.6 0.00 0.00 0.00 76 998.9
20260508161004 19 172 0.0 1.6 0.00 0.00 0.00 76 998.9
20260508155504 19 259 0.0 0.0 0.00 0.00 0.00 77 999.3
20260508155004 19 250 0.0 0.0 0.00 0.00 0.00 78 999.0
20260508154504 18 193 0.0 0.0 0.00 0.00 0.00 78 999.1
20260508154004 18 283 1.6 3.2 0.00 0.00 0.00 78 999.2
20260508153504 19 245 1.6 8.0 0.00 0.00 0.00 78 999.4
20260508153004 19 300 1.6 8.0 0.00 0.00 0.00 76 999.4
20260508152504 19 210 0.0 1.6 0.00 0.00 0.00 76 999.3
20260508152004 18 249 1.6 4.8 0.00 0.00 0.00 77 999.1
20260508151504 18 269 1.6 4.8 0.00 0.00 0.00 78 999.3
20260508151004 18 304 1.6 4.8 0.00 0.00 0.00 78 999.2
20260508150504 18 258 1.6 3.2 0.00 0.00 0.00 78 999.3
20260508150005 18 236 1.6 8.0 0.00 0.00 0.00 77 999.0
20260508145503 18 260 3.2 8.0 0.00 0.00 0.00 78 999.2
20260508145003 18 275 0.0 0.0 0.00 0.00 0.00 77 999.2
20260508144004 18 260 0.0 0.0 0.00 0.00 0.00 78 999.0
20260508143004 18 225 0.0 3.2 0.00 0.00 0.00 78 999.0
20260508142503 18 141 0.0 4.8 0.00 0.00 0.00 79 999.1
20260508142003 18 224 3.2 4.8 0.00 0.00 0.00 78 999.2
20260508141504 18 178 1.6 3.2 0.00 0.00 0.00 78 999.3
20260508141004 17 229 1.6 4.8 0.00 0.00 0.00 79 999.4
20260508140004 18 213 1.6 4.8 0.00 0.00 0.00 78 999.1
20260508135504 18 266 1.6 3.2 0.00 0.00 0.00 78 999.0
20260508135003 18 234 0.0 1.6 0.00 0.00 0.00 78 999.0
20260508134504 17 179 1.6 3.2 0.00 0.00 0.00 80 998.8
20260508134004 17 171 1.6 4.8 0.00 0.00 0.00 80 999.0
20260508133504 17 158 0.0 0.0 0.00 0.00 0.00 81 999.2
20260508133004 16 242 0.0 0.0 0.00 0.00 0.00 82 999.6
20260508132504 16 234 0.0 0.0 0.00 0.00 0.00 82 999.6
20260508132004 16 263 0.0 0.0 0.00 0.00 0.00 82 999.8
20260508131504 16 190 0.0 0.0 0.00 0.00 0.00 83 999.6
20260508131004 16 200 0.0 3.2 0.00 0.00 0.00 84 999.6
20260508130504 16 238 0.0 0.0 0.00 0.00 0.00 84 999.3
20260508125504 16 193 0.0 0.0 0.00 0.00 0.00 84 999.7
20260508125004 16 213 0.0 0.0 0.00 0.00 0.00 85 999.4
20260508124504 15 241 0.0 0.0 0.00 0.00 0.00 85 999.5
20260508123503 15 219 0.0 1.6 0.00 0.00 0.00 85 999.7
20260508123003 15 195 0.0 0.0 0.00 0.00 0.00 85 999.5
20260508122503 15 197 0.0 0.0 0.00 0.00 0.00 86 999.7
20260508122004 15 237 0.0 0.0 0.00 0.00 0.00 86 999.6
20260508121004 15 168 0.0 0.0 0.00 0.00 0.00 86 999.7
20260508120004 15 291 0.0 0.0 0.00 0.00 0.00 86 999.8
20260508115504 15 196 0.0 3.2 0.00 0.00 0.00 86 999.9
20260508115004 15 185 1.6 3.2 0.00 0.00 0.00 86 1000.0
20260508114503 15 166 0.0 1.6 0.00 0.00 0.00 87 999.9
20260508114003 15 203 1.6 1.6 0.00 0.00 0.00 87 1000.1
20260508113503 15 197 0.0 1.6 0.00 0.00 0.00 88 1000.1
20260508113004 15 186 0.0 0.0 0.00 0.00 0.00 89 1000.2
20260508112503 15 167 0.0 0.0 0.00 0.00 0.00 89 1000.1
20260508112004 15 130 0.0 3.2 0.00 0.00 0.00 89 1000.2
20260508111504 15 92 1.6 3.2 0.00 0.00 0.00 89 1000.2
20260508111004 15 86 0.0 3.2 0.00 0.00 0.00 89 1000.0
20260508110504 15 73 1.6 3.2 0.00 0.00 0.00 88 1000.0
20260508105504 15 99 0.0 1.6 0.00 0.00 0.00 88 999.6
20260508105003 15 119 1.6 3.2 0.00 0.00 0.00 88 999.5
20260508104504 15 90 0.0 0.0 0.00 0.00 0.00 88 999.7
20260508103503 15 65 0.0 0.0 0.00 0.00 0.00 87 999.9
20260508103003 15 163 0.0 1.6 0.00 0.00 0.00 87 999.9
20260508102504 15 151 0.0 1.6 0.00 0.00 0.00 87 999.9
20260508102003 15 56 0.0 1.6 0.00 0.00 0.00 87 1000.2
20260508101503 15 66 0.0 1.6 0.00 0.00 0.00 88 1000.3
20260508101003 15 119 0.0 1.6 0.00 0.00 0.00 88 1000.4
20260508100503 15 91 0.0 0.0 0.00 0.00 0.00 89 1000.6
20260508100004 15 91 0.0 0.0 0.00 0.00 0.00 89 1000.5
20260508095504 15 141 0.0 1.6 0.00 0.00 0.00 88 1000.5
20260508095004 15 79 0.0 1.6 0.00 0.00 0.00 88 1000.5
20260508094505 15 82 1.6 4.8 0.00 0.00 0.00 88 1000.6
20260508094004 15 143 0.0 1.6 0.00 0.00 0.00 88 1000.6
20260508093504 15 118 1.6 4.8 0.00 0.00 0.00 87 1000.6
20260508092504 15 73 0.0 0.0 0.00 0.00 0.00 86 1000.6
20260508091504 15 107 0.0 0.0 0.00 0.00 0.00 83 1000.3
20260508091004 15 137 0.0 0.0 0.00 0.00 0.00 82 1000.1
20260508090504 15 89 0.0 0.0 0.00 0.00 0.00 81 1000.0
20260508090004 15 176 0.0 0.0 0.00 0.00 0.00 81 1000.0
20260508085504 15 158 0.0 0.0 0.00 0.00 0.00 81 1000.0
20260508085004 15 193 0.0 0.0 0.00 0.00 0.00 81 999.9
20260508084504 15 190 0.0 0.0 0.00 0.00 0.00 82 999.9
20260508083004 15 205 0.0 0.0 0.00 0.00 0.00 82 1000.0
20260508082004 15 211 0.0 0.0 0.00 0.00 0.00 82 1000.0
20260508081504 15 198 0.0 0.0 0.00 0.00 0.00 83 999.9
20260508081004 15 212 0.0 0.0 0.00 0.00 0.00 83 1000.0
20260508080004 15 166 0.0 0.0 0.00 0.00 0.00 84 999.7
20260508075505 15 198 0.0 0.0 0.00 0.00 0.00 84 999.9
20260508075004 15 187 0.0 1.6 0.00 0.00 0.00 84 999.8
20260508074504 15 166 0.0 3.2 0.00 0.00 0.00 84 999.7
20260508074004 15 183 0.0 0.0 0.00 0.00 0.00 85 999.7
20260508073504 15 209 0.0 0.0 0.00 0.00 0.00 85 999.8
20260508073004 15 189 1.6 3.2 0.00 0.00 0.00 85 999.7
20260508072504 15 172 1.6 3.2 0.00 0.00 0.00 86 1000.0
20260508071503 14 172 0.0 0.0 0.00 0.00 0.00 87 1000.0
20260508070503 14 119 0.0 1.6 0.00 0.00 0.00 86 1000.1
20260508070004 14 103 0.0 1.6 0.00 0.00 0.00 86 1000.3
20260508064503 14 137 0.0 0.0 0.00 0.00 0.00 87 1000.5
20260508064003 14 152 0.0 0.0 0.00 0.00 0.00 88 1000.7
20260508063503 14 178 0.0 0.0 0.00 0.00 0.00 88 1000.7
20260508063003 14 181 0.0 0.0 0.00 0.00 0.00 88 1000.7
20260508062504 14 190 0.0 0.0 0.00 0.00 0.00 88 1000.9
20260508062003 14 191 0.0 0.0 0.00 0.00 0.00 88 1000.8
20260508061503 14 142 0.0 0.0 0.00 0.00 0.00 87 1000.9
20260508061003 14 142 0.0 0.0 0.00 0.00 0.00 87 1000.9
20260508060505 14 129 0.0 0.0 0.00 0.00 0.00 86 1001.1
20260508060005 14 74 0.0 0.0 0.00 0.00 0.00 86 1001.0
20260508055504 14 90 0.0 0.0 0.00 0.00 0.00 86 1000.8
20260508055004 14 131 0.0 0.0 0.00 0.00 0.00 86 1000.9
20260508054504 14 189 0.0 0.0 0.00 0.00 0.00 86 1000.4
20260508054003 14 160 0.0 0.0 0.00 0.00 0.00 86 1000.6
20260508053503 14 158 0.0 0.0 0.00 0.00 0.00 86 1000.6
20260508053004 14 200 0.0 0.0 0.00 0.00 0.00 86 1000.5
20260508052504 14 126 0.0 0.0 0.00 0.00 0.00 87 1000.8
20260508052004 14 79 0.0 0.0 0.00 0.00 0.00 86 1001.0
20260508051504 15 154 0.0 0.0 0.00 0.00 0.00 86 1000.6
20260508050504 15 115 0.0 1.6 0.00 0.00 0.00 86 1000.7
20260508050004 15 181 0.0 1.6 0.00 0.00 0.00 86 1000.7
20260508045504 15 121 0.0 1.6 0.00 0.00 0.00 86 1001.0
20260508045004 15 133 0.0 0.0 0.00 0.00 0.00 86 1000.9
20260508044004 15 141 0.0 0.0 0.00 0.00 0.00 85 1001.4
20260508043503 15 108 0.0 1.6 0.00 0.00 0.00 85 1001.3
20260508043004 15 107 0.0 0.0 0.00 0.00 0.00 85 1001.2
20260508042503 15 152 0.0 0.0 0.00 0.00 0.00 84 1001.0
20260508042004 15 111 0.0 0.0 0.00 0.00 0.00 84 1001.0
20260508041004 15 223 0.0 0.0 0.00 0.00 0.00 84 1001.1
20260508040503 15 219 0.0 0.0 0.00 0.00 0.00 85 1001.2
20260508040004 15 131 0.0 0.0 0.00 0.00 0.00 85 1001.3
20260508035504 15 156 0.0 0.0 0.00 0.00 0.00 84 1001.1
20260508035004 15 178 0.0 0.0 0.00 0.00 0.00 84 1001.3
20260508034004 15 142 0.0 0.0 0.00 0.00 0.00 84 1001.7
20260508033504 15 112 0.0 0.0 0.00 0.00 0.00 84 1001.9
20260508033004 15 198 0.0 0.0 0.00 0.00 0.00 83 1001.6
20260508032503 15 255 0.0 0.0 0.00 0.00 0.00 83 1001.6
20260508032003 15 259 0.0 0.0 0.00 0.00 0.00 83 1001.3
20260508031503 15 232 0.0 0.0 0.00 0.00 0.00 82 1001.5
20260508031004 15 112 0.0 3.2 0.00 0.00 0.00 82 1001.7
20260508030503 15 68 0.0 0.0 0.00 0.00 0.00 81 1001.6
20260508030004 15 82 0.0 0.0 0.00 0.00 0.00 80 1001.0
20260508025503 16 181 0.0 0.0 0.00 0.00 0.00 80 1000.5
20260508025004 16 180 0.0 0.0 0.00 0.00 0.00 80 1000.5
20260508024504 16 192 0.0 0.0 0.00 0.00 0.00 80 1000.4
20260508024004 16 105 0.0 0.0 0.00 0.00 0.00 79 1000.5
20260508023503 16 161 0.0 0.0 0.00 0.00 0.00 79 1000.5
20260508023004 16 180 0.0 0.0 0.00 0.00 0.00 79 1000.0
20260508022003 16 188 1.6 4.8 0.00 0.00 0.00 78 999.7
20260508021504 16 163 1.6 3.2 0.00 0.00 0.00 78 999.7
20260508021004 16 170 0.0 3.2 0.00 0.00 0.00 78 999.7
20260508020504 16 174 0.0 0.0 0.00 0.00 0.00 78 999.7
20260508020004 16 174 0.0 0.0 0.00 0.00 0.00 77 999.8
20260508015504 16 173 0.0 1.6 0.00 0.00 0.00 77 999.6
20260508014504 16 182 0.0 3.2 0.00 0.00 0.00 76 999.7
20260508014004 16 203 1.6 3.2 0.00 0.00 0.00 75 999.7
20260508013004 16 172 3.2 4.8 0.00 0.00 0.00 74 999.9
20260508012504 16 133 1.6 4.8 0.00 0.00 0.00 74 999.7
20260508012004 16 194 1.6 4.8 0.00 0.00 0.00 74 999.7
20260508011504 16 174 0.0 4.8 0.00 0.00 0.00 74 999.4
20260508011005 17 180 1.6 4.8 0.00 0.00 0.00 73 999.4
20260508010004 17 176 3.2 4.8 0.00 0.00 0.00 73 999.8
20260508005504 17 174 1.6 4.8 0.00 0.00 0.00 72 1000.1
20260508005004 17 188 1.6 3.2 0.00 0.00 0.00 72 1000.3
20260508004504 17 225 0.0 1.6 0.00 0.00 0.00 72 1000.3
20260508004004 17 161 0.0 0.0 0.00 0.00 0.00 71 1000.7
20260508003005 17 168 0.0 4.8 0.00 0.00 0.00 70 1000.4
20260508002504 18 197 3.2 4.8 0.00 0.00 0.00 68 1000.2
20260508002004 18 218 0.0 0.0 0.00 0.00 0.00 68 1000.4
20260508001503 18 187 1.6 4.8 0.00 0.00 0.00 67 1000.7
20260508001004 18 188 1.6 3.2 0.00 0.00 0.00 67 1000.6
20260508000504 18 222 0.0 1.6 0.00 0.00 0.00 67 1000.9
20260508000004 18 170 0.0 0.0 0.00 0.00 0.00 66 1000.9
20260507235504 18 191 1.6 3.2 0.00 0.00 0.00 65 1001.0
20260507235004 18 205 0.0 0.0 0.00 0.00 0.00 65 1001.2
20260507234504 18 77 0.0 4.8 0.00 0.00 0.00 64 1001.5
20260507234004 18 92 0.0 3.2 0.00 0.00 0.00 64 1001.5
20260507233504 18 83 1.6 3.2 0.00 0.00 0.00 63 1001.4
20260507233004 18 147 0.0 0.0 0.00 0.00 0.00 64 1001.3
20260507232504 18 126 0.0 0.0 0.00 0.00 0.00 64 1001.2
20260507232004 18 186 1.6 4.8 0.00 0.00 0.00 63 1000.9
20260507231503 18 163 1.6 9.7 0.00 0.00 0.00 63 1000.5
20260507231004 18 158 3.2 4.8 0.00 0.00 0.00 62 1000.5
20260507230504 18 170 1.6 4.8 0.00 0.00 0.00 63 1000.8
20260507230004 18 182 0.0 1.6 0.00 0.00 0.00 63 1001.0
20260507225504 18 174 1.6 4.8 0.00 0.00 0.00 65 1000.9
20260507225004 18 182 1.6 4.8 0.00 0.00 0.00 63 1000.9
20260507224504 18 189 3.2 9.7 0.00 0.00 0.00 64 1001.2
20260507223504 18 174 0.0 0.0 0.00 0.00 0.00 64 1001.4
20260507223004 18 308 0.0 1.6 0.00 0.00 0.00 65 1001.7
20260507222504 18 184 0.0 1.6 0.00 0.00 0.00 65 1001.4
20260507222004 18 153 0.0 0.0 0.00 0.00 0.00 66 1001.5
20260507221504 18 139 1.6 4.8 0.00 0.00 0.00 65 1001.4
20260507221004 18 188 1.6 3.2 0.00 0.00 0.00 65 1001.7
20260507220503 18 99 0.0 1.6 0.00 0.00 0.00 66 1001.7
20260507220004 18 129 0.0 4.8 0.00 0.00 0.00 66 1001.6
20260507215504 18 39 1.6 4.8 0.00 0.00 0.00 66 1001.9
20260507215003 17 52 3.2 8.0 0.00 0.00 0.00 67 1002.1
20260507214504 18 100 1.6 4.8 0.00 0.00 0.00 67 1002.1
20260507214004 18 140 1.6 8.0 0.00 0.00 0.00 66 1002.1
20260507213504 17 87 4.8 9.7 0.00 0.00 0.00 67 1002.3
20260507212004 18 67 3.2 9.7 0.00 0.00 0.00 67 1002.0
20260507211505 18 102 1.6 8.0 0.00 0.00 0.00 67 1002.1
20260507211004 18 110 1.6 8.0 0.00 0.00 0.00 66 1002.0
20260507210504 18 123 1.6 1.6 0.00 0.00 0.00 66 1001.9
20260507210004 18 35 3.2 4.8 0.00 0.00 0.00 66 1001.8
20260507205504 18 184 1.6 3.2 0.00 0.00 0.00 65 1001.6
20260507205004 18 174 3.2 4.8 0.00 0.00 0.00 65 1001.8
20260507204504 18 142 4.8 8.0 0.00 0.00 0.00 65 1002.0
20260507204004 18 198 1.6 8.0 0.00 0.00 0.00 66 1002.2
20260507203504 18 190 4.8 9.7 0.00 0.00 0.00 66 1002.1
20260507203004 18 196 1.6 9.7 0.00 0.00 0.00 67 1002.4
20260507202504 18 141 1.6 4.8 0.00 0.00 0.00 66 1002.4
20260507202004 18 230 4.8 8.0 0.00 0.00 0.00 67 1002.2
20260507201505 18 155 1.6 3.2 0.00 0.00 0.00 66 1002.9
20260507201004 17 150 0.0 1.6 0.00 0.00 0.00 68 1002.9
20260507200004 17 122 3.2 8.0 0.00 0.00 0.00 68 1002.1
20260507195504 17 107 1.6 4.8 0.00 0.00 0.00 68 1002.4
20260507195004 17 188 1.6 8.0 0.00 0.00 0.00 68 1002.6
20260507194504 17 111 0.0 1.6 0.00 0.00 0.00 68 1002.8
20260507193504 17 78 3.2 4.8 0.00 0.00 0.00 67 1003.3
20260507193004 18 133 1.6 4.8 0.00 0.00 0.00 67 1003.3
20260507192504 17 87 1.6 4.8 0.00 0.00 0.00 68 1003.6
20260507192004 17 46 0.0 1.6 0.00 0.00 0.00 68 1003.4
20260507191504 17 96 0.0 8.0 0.00 0.00 0.00 68 1003.2
20260507191004 18 187 4.8 8.0 0.00 0.00 0.00 68 1003.1
20260507190504 17 167 0.0 4.8 0.00 0.00 0.00 68 1003.2
20260507190005 17 197 4.8 9.7 0.00 0.00 0.00 69 1002.9
20260507185504 17 195 3.2 9.7 0.00 0.00 0.00 70 1002.6
20260507184504 17 148 1.6 4.8 0.00 0.00 0.00 71 1003.1
20260507184004 17 288 4.8 11.3 0.00 0.00 0.00 72 1002.8
20260507183504 16 155 4.8 8.0 0.00 0.00 0.00 71 1002.6
20260507183004 17 61 3.2 12.9 0.00 0.00 0.00 70 1002.7
20260507182504 17 195 4.8 12.9 0.00 0.00 0.00 70 1002.9
20260507181504 17 186 3.2 8.0 0.00 0.00 0.00 70 1003.0
20260507181004 17 184 3.2 9.7 0.00 0.00 0.00 70 1003.2
20260507180503 17 159 4.8 9.7 0.00 0.00 0.00 70 1003.1
20260507180004 17 66 3.2 4.8 0.00 0.00 0.00 70 1003.4
20260507175504 17 164 1.6 9.7 0.00 0.00 0.00 70 1003.7